AFR002 LFPG-EGLL

Flight info

Callsign AFR002
Flight time 0h 40m
Altitude 24000
Route NM281 OBOBI LESDO VELOK SUSON HAWKE AVANT D070O NORRY MARLO L09LF
Aircraft A346/H-SDE3E/C

Departure

Time 2026-05-05 01:02
Airport Charles de Gaulle International Airport (LFPG)

Arrival

Time 2026-05-05 01:42
Airport London Heathrow Airport (EGLL)
Time Latitude Longitude Altitude Speed Heading
2026-05-05 00:56 49.01541 2.51179 360 ft 0 kts 175°
2026-05-05 00:57 49.01532 2.51180 360 ft 3 kts 175°
2026-05-05 00:57 49.01495 2.51187 360 ft 5 kts 159°
2026-05-05 00:57 49.01483 2.51222 361 ft 3 kts 99°
2026-05-05 00:58 49.01483 2.51249 362 ft 1 kts 79°
2026-05-05 00:58 49.01487 2.51262 362 ft 2 kts 62°
2026-05-05 00:58 49.01525 2.51299 365 ft 11 kts 19°
2026-05-05 00:58 49.01609 2.51287 365 ft 13 kts 354°
2026-05-05 00:59 49.01705 2.51274 366 ft 13 kts 356°
2026-05-05 00:59 49.01794 2.51264 369 ft 12 kts 356°
2026-05-05 00:59 49.01878 2.51253 371 ft 12 kts 355°
2026-05-05 00:59 49.01961 2.51260 373 ft 11 kts 19°
2026-05-05 01:00 49.02022 2.51333 375 ft 11 kts 51°
2026-05-05 01:00 49.02061 2.51442 375 ft 12 kts 73°
2026-05-05 01:00 49.02070 2.51514 377 ft 0 kts 84°
2026-05-05 01:00 49.02072 2.51538 378 ft 18 kts 84°
2026-05-05 01:01 49.02107 2.52142 382 ft 94 kts 86°
2026-05-05 01:01 49.02177 2.53479 383 ft 157 kts 85°
2026-05-05 01:01 49.02276 2.55358 516 ft 189 kts 86°
2026-05-05 01:01 49.02387 2.57409 984 ft 204 kts 85°
2026-05-05 01:02 49.02544 2.59453 1378 ft 179 kts 83°
2026-05-05 01:02 49.02779 2.61223 1477 ft 171 kts 70°
2026-05-05 01:02 49.03265 2.62977 1628 ft 191 kts 65°
2026-05-05 01:02 49.03853 2.64953 1784 ft 218 kts 66°
2026-05-05 01:03 49.04475 2.67172 2171 ft 236 kts 68°
2026-05-05 01:03 49.05110 2.69565 2669 ft 249 kts 68°
2026-05-05 01:03 49.05515 2.71131 3112 ft 251 kts 69°
2026-05-05 01:03 49.06141 2.73595 3852 ft 253 kts 69°
2026-05-05 01:04 49.06775 2.76119 4580 ft 256 kts 69°
2026-05-05 01:04 49.08044 2.81230 5991 ft 261 kts 69°
2026-05-05 01:04 49.08683 2.83814 6679 ft 264 kts 69°
2026-05-05 01:05 49.09331 2.86442 7360 ft 266 kts 69°
2026-05-05 01:05 49.10419 2.90864 8465 ft 271 kts 69°
2026-05-05 01:05 49.12967 3.00058 10620 ft 280 kts 46°
2026-05-05 01:05 49.16526 3.02397 11800 ft 284 kts 10°
2026-05-05 01:06 49.22989 3.04182 13701 ft 293 kts 11°
2026-05-05 01:06 49.27661 3.05594 14990 ft 298 kts 11°
2026-05-05 01:06 49.34343 3.07656 16682 ft 307 kts 13°
2026-05-05 01:06 49.38059 3.09293 17574 ft 312 kts 18°
2026-05-05 01:07 49.42144 3.11431 18536 ft 317 kts 19°
2026-05-05 01:07 49.46237 3.13579 19452 ft 322 kts 19°
2026-05-05 01:07 49.50444 3.15782 20350 ft 327 kts 18°
2026-05-05 01:07 49.54702 3.18011 21212 ft 331 kts 18°
2026-05-05 01:08 49.58990 3.20259 21945 ft 337 kts 18°
2026-05-05 01:08 49.63403 3.22577 21992 ft 337 kts 18°
2026-05-05 01:08 49.67937 3.24962 22004 ft 361 kts 18°
2026-05-05 01:08 49.72867 3.27562 22006 ft 392 kts 18°
2026-05-05 01:09 49.78210 3.30053 21982 ft 410 kts
2026-05-05 01:09 49.83767 3.28069 21993 ft 427 kts 326°
2026-05-05 01:09 49.88394 3.22135 22004 ft 437 kts 319°
2026-05-05 01:09 49.92960 3.16012 21999 ft 437 kts 319°
2026-05-05 01:10 49.97493 3.10021 21997 ft 437 kts 320°
2026-05-05 01:10 50.01887 3.04244 21997 ft 437 kts 320°
2026-05-05 01:10 50.06507 2.98163 21997 ft 437 kts 320°
2026-05-05 01:10 50.10908 2.92359 21997 ft 437 kts 320°
2026-05-05 01:11 50.15289 2.86592 21997 ft 437 kts 320°
2026-05-05 01:11 50.19727 2.80323 21998 ft 437 kts 315°
2026-05-05 01:11 50.23812 2.73488 21998 ft 437 kts 312°
2026-05-05 01:11 50.27848 2.66532 21997 ft 437 kts 312°
2026-05-05 01:12 50.31935 2.59491 21997 ft 437 kts 312°
2026-05-05 01:12 50.36060 2.52377 22001 ft 447 kts 313°
2026-05-05 01:12 50.40164 2.45149 21989 ft 449 kts 307°
2026-05-05 01:12 50.42477 2.36312 21997 ft 449 kts 278°
2026-05-05 01:13 50.42512 2.26661 22002 ft 449 kts 268°
2026-05-05 01:13 50.42306 2.16830 21998 ft 449 kts 268°
2026-05-05 01:13 50.42130 2.07121 21997 ft 449 kts 268°
2026-05-05 01:13 50.41968 1.97475 21997 ft 449 kts 268°
2026-05-05 01:14 50.41854 1.90612 21997 ft 449 kts 268°
2026-05-05 01:14 50.41771 1.85732 21997 ft 449 kts 268°
2026-05-05 01:14 50.41685 1.80824 21997 ft 449 kts 268°
2026-05-05 01:14 50.41599 1.75935 21997 ft 449 kts 268°
2026-05-05 01:15 50.41510 1.71041 21997 ft 449 kts 268°
2026-05-05 01:15 50.41421 1.66220 21992 ft 435 kts 268°
2026-05-05 01:15 50.41334 1.61615 21989 ft 420 kts 268°
2026-05-05 01:15 50.41247 1.57120 21986 ft 406 kts 268°
2026-05-05 01:16 50.41193 1.52787 21980 ft 391 kts 274°
2026-05-05 01:16 50.41818 1.48765 21957 ft 375 kts 298°
2026-05-05 01:16 50.43285 1.45506 21980 ft 359 kts 314°
2026-05-05 01:16 50.45022 1.42779 21988 ft 344 kts 316°
2026-05-05 01:17 50.46688 1.40212 21990 ft 336 kts 315°
2026-05-05 01:17 50.48336 1.37619 21994 ft 335 kts 315°
2026-05-05 01:17 50.49960 1.35011 21996 ft 335 kts 314°
2026-05-05 01:17 50.51576 1.32373 21996 ft 335 kts 313°
2026-05-05 01:18 50.53184 1.29723 21997 ft 335 kts 313°
2026-05-05 01:18 50.54784 1.27083 21997 ft 335 kts 313°
2026-05-05 01:18 50.56384 1.24440 21997 ft 335 kts 313°
2026-05-05 01:18 50.58010 1.21761 21996 ft 335 kts 314°
2026-05-05 01:19 50.59626 1.19188 21975 ft 333 kts 315°
2026-05-05 01:19 50.61254 1.16636 21692 ft 330 kts 315°
2026-05-05 01:19 50.62877 1.14094 21246 ft 330 kts 315°
2026-05-05 01:19 50.64499 1.11542 20839 ft 329 kts 315°
2026-05-05 01:20 50.66089 1.09034 20473 ft 327 kts 315°
2026-05-05 01:20 50.67682 1.06515 20108 ft 324 kts 315°
2026-05-05 01:20 50.69270 1.04001 19739 ft 322 kts 315°
2026-05-05 01:20 50.70846 1.01501 19371 ft 320 kts 315°
2026-05-05 01:21 50.72398 0.99036 19008 ft 318 kts 315°
2026-05-05 01:21 50.73961 0.96552 18641 ft 316 kts 315°
2026-05-05 01:21 50.75496 0.94109 18281 ft 315 kts 315°
2026-05-05 01:21 50.77015 0.91688 18027 ft 311 kts 315°
2026-05-05 01:22 50.78537 0.89262 18005 ft 312 kts 315°
2026-05-05 01:22 50.80064 0.86824 18001 ft 313 kts 315°
2026-05-05 01:22 50.81606 0.84360 17999 ft 313 kts 315°
2026-05-05 01:22 50.83133 0.81918 17998 ft 313 kts 315°
2026-05-05 01:23 50.84663 0.79468 17997 ft 313 kts 315°
2026-05-05 01:23 50.86176 0.77044 17997 ft 313 kts 315°
2026-05-05 01:23 50.87703 0.74595 17997 ft 313 kts 315°
2026-05-05 01:23 50.89224 0.72152 17997 ft 313 kts 315°
2026-05-05 01:24 50.90759 0.69684 17997 ft 313 kts 315°
2026-05-05 01:24 50.92275 0.67243 17997 ft 313 kts 315°
2026-05-05 01:24 50.93793 0.64797 17997 ft 313 kts 315°
2026-05-05 01:24 50.95327 0.62322 17997 ft 313 kts 315°
2026-05-05 01:25 50.96838 0.59884 17997 ft 313 kts 315°
2026-05-05 01:25 50.98355 0.57422 17997 ft 313 kts 314°
2026-05-05 01:25 50.99885 0.54929 17997 ft 313 kts 314°
2026-05-05 01:25 51.01398 0.52473 17996 ft 313 kts 315°
2026-05-05 01:26 51.02950 0.50070 17997 ft 313 kts 316°
2026-05-05 01:26 51.04525 0.47673 17996 ft 312 kts 316°
2026-05-05 01:26 51.06063 0.45328 17831 ft 308 kts 316°
2026-05-05 01:26 51.07614 0.42955 17416 ft 308 kts 316°
2026-05-05 01:27 51.09153 0.40593 17017 ft 308 kts 316°
2026-05-05 01:27 51.10665 0.38268 16667 ft 306 kts 316°
2026-05-05 01:27 51.12191 0.35935 16323 ft 304 kts 316°
2026-05-05 01:27 51.13463 0.33305 15927 ft 302 kts 290°
2026-05-05 01:28 51.13881 0.30023 15547 ft 300 kts 274°
2026-05-05 01:28 51.14026 0.26748 15222 ft 297 kts 273°
2026-05-05 01:28 51.14170 0.23444 14872 ft 296 kts 274°
2026-05-05 01:28 51.14335 0.20184 14529 ft 294 kts 275°
2026-05-05 01:29 51.14518 0.16938 14188 ft 292 kts 275°
2026-05-05 01:29 51.14713 0.13725 13850 ft 290 kts 275°
2026-05-05 01:29 51.14912 0.10545 13513 ft 289 kts 276°
2026-05-05 01:29 51.15115 0.07376 13175 ft 287 kts 276°
2026-05-05 01:30 51.15319 0.04213 12646 ft 293 kts 276°
2026-05-05 01:30 51.15531 0.00941 11961 ft 304 kts 276°
2026-05-05 01:30 51.15751 -0.02436 11491 ft 306 kts 276°
2026-05-05 01:30 51.15967 -0.05763 11158 ft 303 kts 276°
2026-05-05 01:31 51.16184 -0.09108 10806 ft 301 kts 276°
2026-05-05 01:31 51.16396 -0.12412 10447 ft 300 kts 276°
2026-05-05 01:31 51.16611 -0.15753 10085 ft 298 kts 276°
2026-05-05 01:31 51.16821 -0.19045 9730 ft 297 kts 276°
2026-05-05 01:32 51.17028 -0.22293 9379 ft 295 kts 276°
2026-05-05 01:32 51.17234 -0.25543 9029 ft 294 kts 276°
2026-05-05 01:32 51.17439 -0.28790 8678 ft 292 kts 276°
2026-05-05 01:32 51.17641 -0.32014 8331 ft 291 kts 276°
2026-05-05 01:33 51.17841 -0.35215 7987 ft 289 kts 276°
2026-05-05 01:33 51.18039 -0.38405 7644 ft 288 kts 276°
2026-05-05 01:33 51.18417 -0.44522 7031 ft 283 kts 276°
2026-05-05 01:33 51.18869 -0.51909 6998 ft 285 kts 276°
2026-05-05 01:34 51.19247 -0.58144 6715 ft 281 kts 276°
2026-05-05 01:34 51.19619 -0.64331 5976 ft 281 kts 276°
2026-05-05 01:34 51.19984 -0.70483 5328 ft 278 kts 275°
2026-05-05 01:34 51.20336 -0.76486 4689 ft 276 kts 275°
2026-05-05 01:35 51.20690 -0.82534 4068 ft 272 kts 275°
2026-05-05 01:35 51.21034 -0.88484 4001 ft 273 kts 275°
2026-05-05 01:35 51.21379 -0.94492 3998 ft 273 kts 275°
2026-05-05 01:35 51.21717 -1.00419 3998 ft 273 kts 275°
2026-05-05 01:36 51.22050 -1.06330 3998 ft 273 kts 275°
2026-05-05 01:36 51.22382 -1.12282 3998 ft 273 kts 275°
2026-05-05 01:36 51.22715 -1.18318 3998 ft 273 kts 275°
2026-05-05 01:36 51.23534 -1.24095 3968 ft 273 kts 310°
2026-05-05 01:37 51.26889 -1.26343 3993 ft 273 kts
2026-05-05 01:37 51.30113 -1.23428 3998 ft 273 kts 56°
2026-05-05 01:37 51.32048 -1.18244 4002 ft 273 kts 60°
2026-05-05 01:37 51.33997 -1.12986 3998 ft 273 kts 59°
2026-05-05 01:38 51.35897 -1.07988 3998 ft 273 kts 58°
2026-05-05 01:38 51.37860 -1.02867 3998 ft 273 kts 58°
2026-05-05 01:38 51.39825 -0.97741 3998 ft 273 kts 58°
2026-05-05 01:38 51.41778 -0.92639 3998 ft 273 kts 58°
2026-05-05 01:39 51.43751 -0.87474 3998 ft 273 kts 58°
2026-05-05 01:39 51.45814 -0.82060 3998 ft 273 kts 58°
2026-05-05 01:39 51.46806 -0.79447 3997 ft 273 kts 59°
2026-05-05 01:39 51.47520 -0.76631 3992 ft 273 kts 78°
2026-05-05 01:40 51.47685 -0.73602 4001 ft 273 kts 89°
2026-05-05 01:40 51.47690 -0.70545 3999 ft 273 kts 90°
2026-05-05 01:40 51.47682 -0.67486 3998 ft 273 kts 90°
2026-05-05 01:40 51.47696 -0.64432 3945 ft 274 kts 89°
2026-05-05 01:41 51.47694 -0.61423 3668 ft 265 kts 90°
2026-05-05 01:41 51.47690 -0.58573 3032 ft 253 kts 89°
2026-05-05 01:41 51.47718 -0.55730 1788 ft 266 kts 88°
2026-05-05 01:41 51.47735 -0.52793 852 ft 261 kts 89°
2026-05-05 01:42 51.47744 -0.49994 306 ft 243 kts 89°
2026-05-05 01:42 51.47754 -0.47417 96 ft 214 kts 89°
2026-05-05 01:42 51.47762 -0.45807 90 ft 70 kts 89°
2026-05-05 01:42 51.47758 -0.45517 93 ft 7 kts 105°
2026-05-05 01:43 51.47718 -0.45483 94 ft 8 kts 164°